When you browse on this site, cookies collect data to enhance your experience and personalize the content and advertising you see.
Visit our Privacy Policy to learn more. By continuing to use the site, you agree to this use of cookies and data.
  • In Hungary
  • List of Countries
  • For 7 days
  • Water Temperature
  • Satellite Maps
  • Weather Map
  • News
  • Weather Widgets
  • user-avatar
    Login

    Hourly Weather Leicester

    Today, 22 January, Tuesday

    Time Temperature Precipitation Wind Pressure Humidity
    00:00 +2°C° 0 mm 6 mps 747 mmHg 90%
    01:00 +2°C° 0.7 mm 5 mps 746 mmHg 89%
    02:00 +2°C° 0.7 mm 5 mps 746 mmHg 88%
    03:00 +2°C° 0.7 mm 5 mps 745 mmHg 86%
    04:00 +1°C° 0 mm 4 mps 745 mmHg 86%
    05:00 0°C° 0 mm 4 mps 744 mmHg 86%
    06:00 -1°C° 0 mm 3 mps 744 mmHg 88%
    07:00 -1°C° 0 mm 3 mps 744 mmHg 88%
    08:00 0°C° 0 mm 3 mps 744 mmHg 87%
    09:00 -1°C° 0 mm 4 mps 744 mmHg 87%
    10:00 0°C° 0 mm 4 mps 744 mmHg 82%
    11:00 +1°C° 0 mm 4 mps 744 mmHg 78%
    12:00 +3°C° 0 mm 3 mps 743 mmHg 73%
    13:00 +3°C° 0.1 mm 3 mps 743 mmHg 76%
    14:00 +2°C° 0.1 mm 3 mps 743 mmHg 79%
    15:00 +3°C° 0.1 mm 2 mps 742 mmHg 82%
    16:00 +3°C° 0.4 mm 2 mps 742 mmHg 85%
    17:00 +2°C° 0.4 mm 2 mps 742 mmHg 89%
    18:00 +1°C° 0.4 mm 2 mps 741 mmHg 93%
    19:00 +1°C° 0 mm 2 mps 741 mmHg 92%
    20:00 -1°C° 0 mm 2 mps 741 mmHg 92%
    21:00 -1°C° 0 mm 3 mps 741 mmHg 92%
    22:00 -2°C° 0 mm 3 mps 741 mmHg 92%
    23:00 -2°C° 0 mm 3 mps 741 mmHg 91%

    Tomorrow, 23 January, Wednesday

    Time Temperature Precipitation Wind Pressure Humidity
    00:00 -2°C° 0 mm 3 mps 741 mmHg 91%
    01:00 -2°C° 0 mm 3 mps 741 mmHg 91%
    02:00 -2°C° 0 mm 3 mps 741 mmHg 91%
    03:00 -2°C° 0 mm 2 mps 741 mmHg 91%
    04:00 -2°C° 0 mm 3 mps 742 mmHg 91%
    05:00 -4°C° 0 mm 3 mps 742 mmHg 90%
    06:00 -4°C° 0 mm 3 mps 743 mmHg 90%
    07:00 -2°C° 0 mm 2 mps 743 mmHg 88%
    08:00 -2°C° 0 mm 2 mps 744 mmHg 87%
    09:00 -2°C° 0 mm 2 mps 745 mmHg 85%
    10:00 -1°C° 0 mm 2 mps 745 mmHg 81%
    11:00 0°C° 0 mm 3 mps 745 mmHg 76%
    12:00 +1°C° 0 mm 3 mps 746 mmHg 72%
    13:00 +2°C° 0 mm 3 mps 746 mmHg 72%
    14:00 +3°C° 0 mm 2 mps 746 mmHg 73%
    15:00 +3°C° 0 mm 2 mps 746 mmHg 74%
    16:00 +2°C° 0 mm 2 mps 747 mmHg 77%
    17:00 +1°C° 0 mm 2 mps 747 mmHg 79%
    18:00 -2°C° 0 mm 2 mps 748 mmHg 82%
    19:00 -2°C° 0 mm 2 mps 748 mmHg 83%
    20:00 -2°C° 0 mm 2 mps 748 mmHg 84%
    21:00 0°C° 0 mm 1 mps 749 mmHg 86%
    22:00 -2°C° 0 mm 2 mps 749 mmHg 87%
    23:00 -2°C° 0 mm 2 mps 749 mmHg 88%

    Day after tomorrow, 24 January, Thursday

    Time Temperature Precipitation Wind Pressure Humidity
    00:00 -2°C° 0 mm 2 mps 749 mmHg 89%
    01:00 -1°C° 0 mm 2 mps 749 mmHg 90%
    02:00 -1°C° 0 mm 2 mps 749 mmHg 91%
    03:00 -1°C° 0 mm 2 mps 749 mmHg 91%
    04:00 0°C° 0.2 mm 3 mps 749 mmHg 92%
    05:00 0°C° 0.2 mm 3 mps 749 mmHg 92%
    06:00 +1°C° 0.2 mm 3 mps 749 mmHg 92%
    07:00 +1°C° 0.1 mm 3 mps 749 mmHg 93%
    08:00 +1°C° 0.1 mm 3 mps 749 mmHg 95%
    09:00 +1°C° 0.1 mm 3 mps 749 mmHg 96%
    10:00 +1°C° 0 mm 4 mps 749 mmHg 90%
    11:00 +3°C° 0 mm 4 mps 750 mmHg 85%
    12:00 +2°C° 0 mm 5 mps 750 mmHg 80%
    13:00 +2°C° 0 mm 5 mps 750 mmHg 81%
    14:00 +3°C° 0 mm 4 mps 751 mmHg 82%
    15:00 +3°C° 0 mm 4 mps 751 mmHg 83%
    16:00 +2°C° 0 mm 3 mps 752 mmHg 86%
    17:00 +1°C° 0 mm 3 mps 752 mmHg 89%
    18:00 -1°C° 0 mm 3 mps 753 mmHg 92%
    19:00 -1°C° 0 mm 2 mps 753 mmHg 92%
    20:00 -1°C° 0 mm 2 mps 754 mmHg 92%
    21:00 -2°C° 0 mm 2 mps 754 mmHg 93%
    22:00 -2°C° 0 mm 2 mps 755 mmHg 93%
    23:00 -2°C° 0 mm 2 mps 755 mmHg 93%

    25 January, Friday

    Time Temperature Precipitation Wind Pressure Humidity
    00:00 0°C° 0 mm 1 mps 755 mmHg 93%
    01:00 0°C° 0 mm 1 mps 756 mmHg 92%
    02:00 0°C° 0 mm 1 mps 756 mmHg 92%
    03:00 0°C° 0 mm 1 mps 756 mmHg 92%
    04:00 0°C° 0 mm 1 mps 757 mmHg 91%
    05:00 0°C° 0 mm 1 mps 757 mmHg 91%
    06:00 -1°C° 0 mm 0 mps 757 mmHg 91%
    07:00 0°C° 0 mm 0 mps 758 mmHg 89%
    08:00 0°C° 0 mm 0 mps 758 mmHg 88%
    09:00 +2°C° 0 mm 1 mps 758 mmHg 87%
    10:00 +3°C° 0 mm 1 mps 759 mmHg 84%
    11:00 +4°C° 0 mm 1 mps 759 mmHg 82%
    12:00 +4°C° 0 mm 2 mps 759 mmHg 79%
    13:00 +4°C° 0 mm 2 mps 759 mmHg 81%
    14:00 +3°C° 0 mm 2 mps 759 mmHg 83%
    15:00 +3°C° 0 mm 2 mps 759 mmHg 84%
    16:00 +2°C° 0 mm 3 mps 759 mmHg 86%
    17:00 +2°C° 0 mm 3 mps 759 mmHg 87%
    18:00 +1°C° 0 mm 3 mps 759 mmHg 89%
    19:00 +1°C° 0 mm 3 mps 759 mmHg 89%
    20:00 +1°C° 0 mm 3 mps 759 mmHg 90%
    21:00 +1°C° 0 mm 3 mps 759 mmHg 90%
    22:00 +1°C° 0 mm 4 mps 759 mmHg 92%
    23:00 +1°C° 0 mm 4 mps 758 mmHg 93%

    26 January, Saturday

    Time Temperature Precipitation Wind Pressure Humidity
    00:00 +1°C° 0 mm 4 mps 758 mmHg 94%
    01:00 +1°C° 0 mm 4 mps 758 mmHg 95%
    02:00 +1°C° 0 mm 4 mps 757 mmHg 96%
    03:00 +3°C° 0 mm 4 mps 756 mmHg 97%
    04:00 +3°C° 0 mm 4 mps 755 mmHg 97%
    05:00 +3°C° 0 mm 4 mps 755 mmHg 97%
    06:00 +3°C° 0 mm 5 mps 754 mmHg 97%
    07:00 +3°C° 0 mm 5 mps 753 mmHg 96%
    08:00 +3°C° 0 mm 6 mps 753 mmHg 95%
    09:00 +3°C° 0 mm 6 mps 752 mmHg 94%
    10:00 +4°C° 0 mm 7 mps 751 mmHg 92%
    11:00 +4°C° 0 mm 7 mps 749 mmHg 91%
    12:00 +5°C° 0 mm 8 mps 748 mmHg 89%
    13:00 +5°C° 0.4 mm 8 mps 747 mmHg 88%
    14:00 +5°C° 0.4 mm 8 mps 745 mmHg 86%
    15:00 +6°C° 0.4 mm 8 mps 744 mmHg 85%
    16:00 +5°C° 0.3 mm 9 mps 743 mmHg 84%
    17:00 +4°C° 0.3 mm 11 mps 743 mmHg 83%
    18:00 +4°C° 0.3 mm 12 mps 743 mmHg 82%
    19:00 +3°C° 0 mm 11 mps 744 mmHg 79%
    20:00 +2°C° 0 mm 10 mps 744 mmHg 76%
    21:00 +1°C° 0 mm 9 mps 745 mmHg 73%
    22:00 +1°C° 0.2 mm 9 mps 745 mmHg 75%
    23:00 +1°C° 0.2 mm 8 mps 746 mmHg 77%

    27 January, Sunday

    Time Temperature Precipitation Wind Pressure Humidity
    00:00 +1°C° 0.2 mm 8 mps 747 mmHg 79%
    01:00 +1°C° 0 mm 8 mps 748 mmHg 77%
    02:00 0°C° 0 mm 7 mps 748 mmHg 76%
    03:00 -1°C° 0 mm 7 mps 749 mmHg 74%
    04:00 -2°C° 0 mm 7 mps 750 mmHg 74%
    05:00 -2°C° 0 mm 6 mps 750 mmHg 73%
    06:00 -3°C° 0 mm 6 mps 751 mmHg 73%
    07:00 -3°C° 0 mm 6 mps 751 mmHg 71%
    08:00 -2°C° 0 mm 6 mps 752 mmHg 70%
    09:00 -2°C° 0 mm 6 mps 752 mmHg 68%
    10:00 -1°C° 0 mm 7 mps 752 mmHg 65%
    11:00 -1°C° 0 mm 7 mps 753 mmHg 61%
    12:00 0°C° 0 mm 8 mps 753 mmHg 58%
    13:00 0°C° 0 mm 7 mps 753 mmHg 59%
    14:00 0°C° 0 mm 7 mps 753 mmHg 60%
    15:00 +1°C° 0 mm 6 mps 753 mmHg 62%
    16:00 -1°C° 0 mm 6 mps 754 mmHg 64%
    17:00 -1°C° 0 mm 5 mps 754 mmHg 67%
    18:00 -1°C° 0 mm 5 mps 754 mmHg 70%
    19:00 -2°C° 0 mm 5 mps 755 mmHg 70%
    20:00 -2°C° 0 mm 5 mps 755 mmHg 69%
    21:00 -2°C° 0 mm 5 mps 756 mmHg 69%
    22:00 -2°C° 0 mm 5 mps 756 mmHg 69%
    23:00 -2°C° 0 mm 5 mps 756 mmHg 70%
    Show more